DW7027 Weather Reports


Display with metric or nautical units.
time (UTC)temp
F
wind
direction
speed
MPH
gust
MPH
rain 1hr
in
rain 24hr
in
rain mn
in
humidity
%
barometer
mb
20260507180204 63 268 3.0 7.0 0.00 0.00 0.00 59 1017.1
20260507175704 64 277 4.0 8.0 0.00 0.00 0.00 58 1017.1
20260507175205 64 232 6.0 13.0 0.00 0.00 0.00 58 1017.0
20260507174705 64 249 7.0 15.0 0.00 0.00 0.00 57 1016.9
20260507174206 63 249 6.0 10.0 0.00 0.00 0.00 58 1017.0
20260507173705 64 213 4.0 5.0 0.00 0.00 0.00 57 1016.7
20260507172705 64 257 2.0 5.0 0.00 0.00 0.00 56 1016.5
20260507171705 64 56 2.0 5.0 0.00 0.00 0.00 55 1016.5
20260507171204 64 79 1.0 5.0 0.00 0.00 0.00 55 1016.4
20260507170704 65 257 2.0 3.0 0.00 0.00 0.00 54 1016.5
20260507170204 65 344 3.0 6.0 0.00 0.00 0.00 53 1016.4
20260507165704 65 60 4.0 10.0 0.00 0.00 0.00 53 1016.0
20260507165204 66 14 6.0 12.0 0.00 0.00 0.00 52 1015.9
20260507164705 66 1 4.0 8.0 0.00 0.00 0.00 51 1016.0
20260507164204 67 350 5.0 8.0 0.00 0.00 0.00 50 1016.1
20260507163707 68 356 4.0 9.0 0.00 0.00 0.00 48 1016.0
20260507163205 69 3 6.0 10.0 0.00 0.00 0.00 46 1015.9
20260507162704 69 288 3.0 8.0 0.00 0.00 0.00 44 1015.7
20260507161704 69 225 3.0 6.0 0.00 0.00 0.00 44 1015.6
20260507161204 69 227 3.0 9.0 0.00 0.00 0.00 44 1015.5
20260507160704 69 194 5.0 8.0 0.00 0.00 0.00 44 1015.6
20260507160205 70 180 6.0 10.0 0.00 0.00 0.00 44 1015.4
20260507155704 70 171 3.0 10.0 0.00 0.00 0.00 44 1015.7
20260507154706 70 242 3.0 9.0 0.00 0.00 0.00 43 1015.5
20260507153205 71 203 6.0 13.0 0.00 0.00 0.00 43 1015.5
20260507152704 72 181 5.0 10.0 0.00 0.00 0.00 42 1015.7
20260507152205 72 202 6.0 12.0 0.00 0.00 0.00 42 1015.7
20260507151705 72 246 6.0 12.0 0.00 0.00 0.00 42 1015.6
20260507151205 71 206 2.0 6.0 0.00 0.00 0.00 43 1015.6
20260507150205 72 226 6.0 12.0 0.00 0.00 0.00 42 1015.7
20260507145705 72 191 5.0 9.0 0.00 0.00 0.00 43 1015.8
20260507145206 72 200 7.0 12.0 0.00 0.00 0.00 43 1015.7
20260507144705 73 202 6.0 13.0 0.00 0.00 0.00 43 1015.6
20260507144205 72 222 5.0 9.0 0.00 0.00 0.00 44 1015.9
20260507143205 72 176 5.0 8.0 0.00 0.00 0.00 44 1015.7
20260507142205 71 198 4.0 8.0 0.00 0.00 0.00 46 1015.8
20260507140204 71 204 6.0 12.0 0.00 0.00 0.00 46 1016.0
20260507135705 71 205 6.0 10.0 0.00 0.00 0.00 45 1016.0
20260507135204 71 204 5.0 9.0 0.00 0.00 0.00 46 1016.0
20260507134705 71 221 4.0 10.0 0.00 0.00 0.00 45 1016.0
20260507134205 72 198 8.0 12.0 0.00 0.00 0.00 44 1016.0
20260507133705 72 282 3.0 8.0 0.00 0.00 0.00 45 1015.9
20260507133205 72 246 4.0 7.0 0.00 0.00 0.00 45 1016.0
20260507132705 72 37 5.0 7.0 0.00 0.00 0.00 45 1015.9
20260507132205 73 197 4.0 8.0 0.00 0.00 0.00 44 1016.0
20260507131705 73 215 6.0 9.0 0.00 0.00 0.00 43 1016.1
20260507131205 73 254 5.0 9.0 0.00 0.00 0.00 44 1016.2
20260507130705 73 350 4.0 7.0 0.00 0.00 0.00 45 1016.1
20260507130204 73 278 5.0 8.0 0.00 0.00 0.00 45 1016.1
20260507125705 72 7 3.0 6.0 0.00 0.00 0.00 45 1016.3
20260507125206 72 256 4.0 12.0 0.00 0.00 0.00 46 1016.4
20260507124705 72 205 5.0 9.0 0.00 0.00 0.00 45 1016.4
20260507124205 72 206 6.0 12.0 0.00 0.00 0.00 45 1016.5
20260507123704 72 249 9.0 14.0 0.00 0.00 0.00 46 1016.4
20260507123205 72 248 5.0 8.0 0.00 0.00 0.00 46 1016.5
20260507122205 71 274 4.0 12.0 0.00 0.00 0.00 46 1016.5
20260507121205 71 270 4.0 10.0 0.00 0.00 0.00 46 1016.6
20260507120705 71 246 5.0 13.0 0.00 0.00 0.00 46 1016.7
20260507120204 71 233 7.0 13.0 0.00 0.00 0.00 47 1016.8
20260507115706 71 237 7.0 12.0 0.00 0.00 0.00 47 1016.9
20260507114204 71 250 5.0 14.0 0.00 0.00 0.00 48 1016.8
20260507113705 70 288 3.0 10.0 0.00 0.00 0.00 49 1017.0
20260507113205 70 242 7.0 14.0 0.00 0.00 0.00 49 1016.9
20260507112705 70 204 4.0 13.0 0.00 0.00 0.00 48 1017.0
20260507112205 70 243 3.0 9.0 0.00 0.00 0.00 49 1016.9
20260507111705 70 284 7.0 14.0 0.00 0.00 0.00 49 1017.1
20260507111205 70 278 5.0 14.0 0.00 0.00 0.00 49 1017.2
20260507110705 70 274 7.0 12.0 0.00 0.00 0.00 50 1017.2
20260507105705 69 284 3.0 13.0 0.00 0.00 0.00 50 1017.3
20260507105205 69 244 6.0 12.0 0.00 0.00 0.00 49 1017.3
20260507104704 68 247 6.0 12.0 0.00 0.00 0.00 49 1017.4
20260507104205 68 246 6.0 13.0 0.00 0.00 0.00 49 1017.3
20260507103705 68 240 4.0 10.0 0.00 0.00 0.00 52 1017.1
20260507103205 68 238 6.0 12.0 0.00 0.00 0.00 53 1017.3
20260507102705 67 248 3.0 10.0 0.00 0.00 0.00 52 1017.5
20260507102204 67 252 5.0 12.0 0.00 0.00 0.00 54 1017.3
20260507101705 67 277 5.0 9.0 0.00 0.00 0.00 55 1017.3
20260507100705 67 254 5.0 15.0 0.00 0.00 0.00 54 1017.1
20260507100205 67 245 9.0 14.0 0.00 0.00 0.00 56 1017.1
20260507095206 66 217 7.0 12.0 0.00 0.00 0.00 56 1017.1
20260507094704 66 237 6.0 10.0 0.00 0.00 0.00 56 1017.3
20260507093204 66 196 6.0 9.0 0.00 0.00 0.00 57 1017.0
20260507092705 67 251 5.0 9.0 0.00 0.00 0.00 56 1017.1
20260507091705 67 255 6.0 10.0 0.00 0.00 0.00 58 1016.9
20260507090705 65 256 7.0 12.0 0.00 0.00 0.00 59 1017.0
20260507090205 65 287 6.0 12.0 0.00 0.00 0.00 60 1017.0
20260507085705 65 286 6.0 15.0 0.00 0.00 0.00 60 1017.0
20260507085205 65 264 5.0 13.0 0.00 0.00 0.00 60 1017.2
20260507084705 64 265 6.0 13.0 0.00 0.00 0.00 60 1016.9
20260507083705 64 269 5.0 10.0 0.00 0.00 0.00 60 1016.9
20260507083205 65 272 4.0 8.0 0.00 0.00 0.00 60 1016.6
20260507082704 65 302 5.0 12.0 0.00 0.00 0.00 60 1016.8
20260507082204 65 283 6.0 12.0 0.00 0.00 0.00 60 1016.4
20260507081705 65 262 6.0 12.0 0.00 0.00 0.00 60 1016.4
20260507081204 65 278 9.0 16.0 0.00 0.00 0.00 60 1016.3
20260507080704 65 288 5.0 12.0 0.00 0.00 0.00 61 1016.3
20260507080205 65 285 6.0 10.0 0.00 0.00 0.00 61 1016.4
20260507074705 64 280 7.0 13.0 0.00 0.00 0.00 63 1016.3
20260507074205 63 266 7.0 13.0 0.00 0.00 0.00 62 1016.2
20260507073705 63 270 6.0 13.0 0.00 0.00 0.00 63 1015.9
20260507073204 63 286 8.0 14.0 0.00 0.00 0.00 63 1016.4
20260507072705 63 280 6.0 14.0 0.00 0.00 0.00 63 1016.3
20260507072204 63 256 6.0 13.0 0.00 0.00 0.00 63 1016.4
20260507071704 63 280 10.0 18.0 0.00 0.00 0.00 63 1015.9
20260507071205 64 269 8.0 15.0 0.00 0.00 0.00 63 1016.0
20260507065705 63 269 10.0 16.0 0.00 0.00 0.00 64 1016.0
20260507065206 63 273 9.0 16.0 0.00 0.00 0.00 64 1016.0
20260507064705 63 277 9.0 17.0 0.00 0.00 0.00 64 1015.9
20260507064205 63 285 10.0 17.0 0.00 0.00 0.00 64 1015.9
20260507063705 63 279 11.0 20.0 0.00 0.00 0.00 65 1016.1
20260507062205 62 290 10.0 15.0 0.00 0.00 0.00 68 1016.0
20260507061704 62 282 8.0 18.0 0.00 0.00 0.00 68 1015.8
20260507061205 61 291 6.0 14.0 0.00 0.00 0.00 69 1015.8
20260507060705 61 278 7.0 13.0 0.00 0.00 0.00 70 1015.6
20260507060204 61 286 5.0 10.0 0.00 0.00 0.00 70 1015.9
20260507055705 61 266 5.0 10.0 0.00 0.00 0.00 70 1015.9
20260507054704 60 272 6.0 13.0 0.00 0.00 0.00 71 1015.7
20260507054204 60 284 5.0 12.0 0.00 0.00 0.00 72 1015.6
20260507053705 60 284 7.0 13.0 0.00 0.00 0.00 72 1015.4
20260507053205 59 277 7.0 10.0 0.00 0.00 0.00 73 1015.2
20260507052704 59 279 5.0 10.0 0.00 0.00 0.00 73 1015.2
20260507052204 59 286 6.0 12.0 0.00 0.00 0.00 74 1015.2
20260507051704 59 284 5.0 9.0 0.00 0.00 0.00 74 1015.2
20260507051205 58 286 5.0 9.0 0.00 0.00 0.00 74 1015.2
20260507050704 58 281 5.0 8.0 0.00 0.00 0.00 75 1015.2
20260507045705 58 258 3.0 5.0 0.00 0.00 0.00 75 1015.0
20260507045205 58 255 2.0 5.0 0.00 0.00 0.00 75 1015.0
20260507044704 58 234 2.0 5.0 0.00 0.00 0.00 75 1015.1
20260507044205 58 216 2.0 3.0 0.00 0.00 0.00 75 1014.9
20260507043704 58 186 2.0 3.0 0.00 0.00 0.00 75 1015.0
20260507043205 58 180 2.0 5.0 0.00 0.00 0.00 75 1014.7
20260507042204 58 199 3.0 5.0 0.00 0.00 0.00 75 1014.6
20260507041705 58 201 4.0 6.0 0.00 0.00 0.00 75 1014.5
20260507041204 58 233 3.0 5.0 0.00 0.00 0.00 75 1014.5
20260507040705 58 243 2.0 5.0 0.00 0.00 0.00 75 1014.5
20260507040205 58 229 3.0 7.0 0.00 0.00 0.00 75 1014.4
20260507035705 58 195 3.0 6.0 0.00 0.00 0.00 75 1014.6
20260507035204 58 211 4.0 6.0 0.00 0.00 0.00 74 1014.3
20260507034705 58 202 3.0 6.0 0.00 0.00 0.00 74 1014.1
20260507034204 59 215 2.0 3.0 0.00 0.00 0.00 73 1014.2
20260507033705 59 232 2.0 6.0 0.00 0.00 0.00 72 1014.2
20260507033204 59 244 3.0 6.0 0.00 0.00 0.00 72 1014.1
20260507032705 59 228 3.0 5.0 0.00 0.00 0.00 72 1014.0
20260507032204 59 243 3.0 6.0 0.00 0.00 0.00 72 1014.1
20260507031705 59 237 3.0 5.0 0.00 0.00 0.00 72 1013.9
20260507031205 59 181 3.0 5.0 0.00 0.00 0.00 71 1014.1
20260507005205 59 256 5.0 8.0 0.00 0.00 0.00 72 1012.9
20260507004705 59 245 3.0 7.0 0.00 0.00 0.00 72 1012.9
20260507004205 59 235 4.0 8.0 0.00 0.00 0.00 72 1012.7
20260507003704 59 239 5.0 8.0 0.00 0.00 0.00 72 1012.6
20260507003205 59 255 3.0 7.0 0.00 0.00 0.00 72 1012.4
20260507002704 59 238 4.0 7.0 0.00 0.00 0.00 72 1012.7
20260507002205 59 239 5.0 8.0 0.00 0.00 0.00 72 1012.6
20260507001204 59 249 5.0 9.0 0.00 0.00 0.00 71 1012.3
20260507000205 60 241 5.0 9.0 0.00 0.00 0.00 71 1012.3
20260506235205 60 242 6.0 12.0 0.00 0.00 0.00 71 1012.1
20260506234705 60 239 6.0 10.0 0.00 0.00 0.00 71 1012.0
20260506234204 60 241 6.0 9.0 0.00 0.00 0.00 70 1011.7
20260506233705 60 246 6.0 10.0 0.00 0.00 0.00 70 1011.7
20260506233205 60 234 5.0 12.0 0.00 0.00 0.00 70 1011.9
20260506232704 61 218 5.0 8.0 0.00 0.00 0.00 70 1011.6
20260506232205 61 230 6.0 12.0 0.00 0.00 0.00 70 1011.7
20260506231704 61 212 4.0 10.0 0.00 0.00 0.00 70 1011.6
20260506231204 61 220 5.0 10.0 0.00 0.00 0.00 70 1011.4
20260506230705 61 211 7.0 13.0 0.00 0.00 0.00 70 1011.5
20260506230204 61 206 8.0 12.0 0.00 0.00 0.00 70 1011.5
20260506225705 62 208 6.0 9.0 0.00 0.00 0.00 69 1011.5
20260506225205 62 230 5.0 10.0 0.00 0.00 0.00 69 1011.4
20260506224204 62 215 7.0 14.0 0.00 0.00 0.00 69 1011.2
20260506223204 63 205 7.0 14.0 0.00 0.00 0.00 68 1011.1
20260506222704 63 196 10.0 15.0 0.00 0.00 0.00 68 1011.0
20260506222205 63 209 7.0 16.0 0.00 0.00 0.00 68 1010.5
20260506221705 63 200 10.0 15.0 0.00 0.00 0.00 67 1010.4
20260506221205 63 207 7.0 13.0 0.00 0.00 0.00 67 1010.5
20260506220704 63 200 6.0 14.0 0.00 0.00 0.00 66 1010.4
20260506220206 63 204 9.0 15.0 0.00 0.00 0.00 66 1010.4
20260506215705 63 214 7.0 18.0 0.00 0.00 0.00 66 1010.4
20260506214705 64 194 9.0 15.0 0.00 0.00 0.00 65 1010.3
20260506214204 64 215 9.0 15.0 0.00 0.00 0.00 65 1010.3
20260506213704 64 195 9.0 15.0 0.00 0.00 0.00 64 1010.1
20260506213204 64 191 10.0 16.0 0.00 0.00 0.00 65 1010.1
20260506212705 64 196 11.0 20.0 0.00 0.00 0.00 64 1010.3
20260506212205 64 183 9.0 16.0 0.00 0.00 0.00 64 1010.1
20260506211205 65 202 10.0 16.0 0.00 0.00 0.00 63 1010.0
20260506210704 65 187 9.0 17.0 0.00 0.00 0.00 63 1009.8
20260506210204 65 203 9.0 16.0 0.00 0.00 0.00 62 1009.9
20260506205704 65 220 10.0 18.0 0.00 0.00 0.00 62 1009.8
20260506205205 65 200 10.0 18.0 0.00 0.00 0.00 62 1010.1
20260506204704 65 192 9.0 16.0 0.00 0.00 0.00 62 1009.9
20260506204204 65 189 11.0 17.0 0.00 0.00 0.00 62 1010.0
20260506203704 66 198 10.0 18.0 0.00 0.00 0.00 61 1009.8
20260506203205 66 197 10.0 17.0 0.00 0.00 0.00 61 1009.8
20260506202205 66 183 7.0 16.0 0.00 0.00 0.00 61 1009.6
20260506201704 66 212 7.0 12.0 0.00 0.00 0.00 60 1009.8
20260506201204 66 182 9.0 20.0 0.00 0.00 0.00 60 1009.7
20260506200704 66 187 8.0 18.0 0.00 0.00 0.00 59 1009.6
20260506200204 67 199 11.0 20.0 0.00 0.00 0.00 59 1009.4
20260506195704 67 195 10.0 20.0 0.00 0.00 0.00 59 1009.4
20260506195205 67 195 12.0 20.0 0.00 0.00 0.00 59 1009.2
20260506194704 67 180 11.0 22.0 0.00 0.00 0.00 58 1009.2
20260506194205 67 202 9.0 20.0 0.00 0.00 0.00 58 1009.2
20260506193704 67 188 12.0 20.0 0.00 0.00 0.00 58 1009.5
20260506192704 67 184 9.0 21.0 0.00 0.00 0.00 57 1009.3
20260506192205 67 196 11.0 21.0 0.00 0.00 0.00 57 1009.4
20260506191705 68 179 9.0 17.0 0.00 0.00 0.00 57 1009.2
20260506191204 68 184 8.0 21.0 0.00 0.00 0.00 57 1009.3
20260506190705 68 202 7.0 21.0 0.00 0.00 0.00 57 1009.3
20260506190204 68 203 12.0 22.0 0.00 0.00 0.00 56 1009.2
20260506185704 68 178 10.0 20.0 0.00 0.00 0.00 56 1009.1
20260506185205 68 189 10.0 17.0 0.00 0.00 0.00 56 1009.1
20260506184704 68 200 9.0 23.0 0.00 0.00 0.00 56 1009.0
20260506184204 69 192 9.0 23.0 0.00 0.00 0.00 55 1008.7
20260506183705 69 177 10.0 21.0 0.00 0.00 0.00 55 1008.7
20260506182704 69 181 9.0 17.0 0.00 0.00 0.00 54 1008.5
20260506182205 69 185 9.0 17.0 0.00 0.00 0.00 54 1008.5
20260506180704 70 182 9.0 17.0 0.00 0.00 0.00 53 1008.6